Simultaneous Nadir Overpasses (SNOs) Predictions

Prediction of SNOs between AQUA and GOES-15 Satellite Orbit:

Table of predicted SNOs for the next 14.0 days since TLE Epoch: 2/8/2019
Index Date Time (AQUA) AQUA Lat,Lon GOES-15 Lat,Lon Distance(km) Time Diff (sec)
1 02/09/2019 10:07:16 -0.08,-127.89 -0.05,-128.02 14.42 80
2 02/11/2019 09:55:05 -0.71,-124.93 -0.05,-128.07 356.94 80
3 02/11/2019 22:16:30 -0.39,-130.13 0.05,-128.01 240.29 80
4 02/13/2019 22:04:19 0.24,-127.17 0.04,-128.06 101.43 80
5 02/14/2019 10:25:34 0.86,-132.32 -0.04,-128.15 475.14 80
6 02/15/2019 21:52:08 0.88,-124.21 0.03,-128.10 442.35 18
7 02/16/2019 10:13:23 0.23,-129.37 -0.03,-128.19 134.43 80
8 02/18/2019 10:01:12 -0.40,-126.41 -0.02,-128.22 205.98 80
9 02/18/2019 22:22:36 -0.74,-131.59 0.01,-128.15 391.57 80
10 02/20/2019 22:10:25 -0.09,-128.64 0.01,-128.18 51.71 80




NCC Satellite Simultaneous Nadir Overpasses (SNOs) Prediction Service
